Puigmal 2600, France 16 day weather forecast

Slopes altitude range 1800 m - 2700m

Number of lifts: 13 Pistes: 32km

In some cases the lift and piste totals shown are for the ski domain (e.g. Three Valleys) rather than individual resort (e.g. Courchevel)

Overview

The 16 day weather forecast is fully updated 4 times every day.

    • Wed 26 JUN 2019
    • Wed 26
    • 18C 27C
    • Thu 27 JUN 2019
    • Thu 27
    • 20C 29C
    • Fri 28 JUN 2019
    • Fri 28
    • 19C 29C
    • Sat 29 JUN 2019
    • Sat 29
    • 20C 29C
    • Sun 30 JUN 2019
    • Sun 30
    • 20C 29C
    • Mon 01 JUL 2019
    • Mon 01
    • 19C 27C
    • Tue 02 JUL 2019
    • Tue 02
    • 15C 22C
    • Wed 03 JUL 2019
    • Wed 03
    • 15C 21C
    • Thu 04 JUL 2019
    • Thu 04
    • 20C 32C
    • Fri 05 JUL 2019
    • Fri 05
    • 19C 25C
    • Sat 06 JUL 2019
    • Sat 06
    • 20C 28C
    • Sun 07 JUL 2019
    • Sun 07
    • 22C 33C
    • Mon 08 JUL 2019
    • Mon 08
    • 19C 29C
    • Tue 09 JUL 2019
    • Tue 09
    • 16C 27C
    • Wed 10 JUL 2019
    • Wed 10
    • 18C 24C
    • Thu 11 JUL 2019
    • Thu 11
    • 18C 21C

Date:

Time Type 0°C level Temp Chill Snow Cloud Speed Gust Dir Press
3:00 4632m 14°C 14_4 0cm 9% 4mph 6mph 1019mB
6:00 4622m 14°C 14_5 0cm 41% 5mph 6mph 1020mB
9:00 4681m 18°C 18_10 0cm 43% 10mph 26mph 1019mB
12:00 4736m 27°C 27_12 0cm 32% 12mph 26mph 1019mB
15:00 4727m 27°C 27_10 0cm 0% 10mph 24mph 1019mB
18:00 4728m 27°C 27_5 0cm 0% 5mph 7mph 1019mB
21:00 4700m 16°C 16_4 0cm 0% 4mph 6mph 1020mB
0:00 4677m 16°C 16_4 0cm 0% 4mph 5mph 1021mB
3:00 4701m 16°C 16_4 0cm 0% 4mph 5mph 1021mB
6:00 4697m 16°C 16_3 0cm 0% 3mph 4mph 1021mB
9:00 4658m 20°C 20_4 0cm 0% 4mph 4mph 1021mB
12:00 4638m 29°C 29_5 0cm 0% 5mph 10mph 1019mB
15:00 4593m 30°C 30_3 0cm 43% 3mph 5mph 1018mB
18:00 4560m 30°C 30_2 0cm 69% 2mph 3mph 1017mB
21:00 4648m 17°C 17_2 0cm 58% 2mph 3mph 1019mB
0:00 4810m 17°C 17_5 0cm 35% 5mph 5mph 1018mB
3:00 4877m 17°C 17_6 0cm 0% 6mph 7mph 1017mB
6:00 4722m 16°C 16_5 0cm 0% 5mph 6mph 1017mB
9:00 4533m 19°C 19_2 0cm 0% 2mph 7mph 1017mB
12:00 4532m 29°C 29_4 0cm 0% 4mph 5mph 1015mB
15:00 4628m 29°C 29_3 0cm 1% 3mph 4mph 1014mB
18:00 4525m 29°C 29_4 0cm 39% 4mph 6mph 1013mB
21:00 4466m 18°C 18_4 0cm 81% 4mph 5mph 1015mB
0:00 4499m 17°C 17_2 0cm 41% 2mph 4mph 1015mB
3:00 4480m 17°C 17_3 0cm 0% 3mph 4mph 1015mB
6:00 4469m 16°C 16_2 0cm 0% 2mph 3mph 1015mB
9:00 4449m 20°C 20_4 0cm 0% 4mph 4mph 1016mB
12:00 4522m 29°C 29_3 0cm 10% 3mph 5mph 1015mB
15:00 4511m 27°C 27_7 0cm 99% 7mph 7mph 1015mB
18:00 4468m 27°C 27_3 0cm 69% 3mph 4mph 1015mB
21:00 4465m 17°C 17_3 0cm 53% 3mph 4mph 1018mB
0:00 4452m 16°C 16_3 0cm 26% 3mph 4mph 1018mB
3:00 4436m 16°C 16_2 0cm 0% 2mph 3mph 1018mB
6:00 4471m 15°C 15_1 0cm 0% 1mph 2mph 1018mB
9:00 4518m 20°C 20_4 0cm 0% 4mph 4mph 1019mB
12:00 4524m 29°C 29_3 0cm 10% 3mph 6mph 1018mB
15:00 4479m 27°C 27_4 0cm 95% 4mph 7mph 1016mB
18:00 4566m 27°C 27_5 0cm 98% 5mph 7mph 1017mB
21:00 4646m 13°C 13_3 0cm 100% 3mph 4mph 1018mB
0:00 4540m 13°C 13_5 0cm 69% 5mph 5mph 1018mB
3:00 4566m 14°C 14_2 0cm 0% 2mph 4mph 1017mB
6:00 4568m 14°C 14_1 0cm 0% 1mph 3mph 1018mB
9:00 4550m 19°C 19_5 0cm 0% 5mph 4mph 1018mB
12:00 4411m 27°C 27_7 0cm 0% 7mph 5mph 1017mB
15:00 4439m 27°C 27_6 0cm 76% 6mph 9mph 1015mB
18:00 4496m 27°C 27_5 0cm 88% 5mph 9mph 1016mB
21:00 4470m 11°C 11_5 0cm 100% 5mph 6mph 1017mB
0:00 4373m 11°C 11_3 0cm 68% 3mph 4mph 1017mB
3:00 4452m 11°C 11_1 0cm 0% 1mph 3mph 1016mB
6:00 4368m 11°C 11_1 0cm 1% 1mph 3mph 1017mB
9:00 4352m 15°C 15_5 0cm 0% 5mph 4mph 1016mB
12:00 4322m 22°C 22_4 0cm 50% 4mph 4mph 1015mB
15:00 4219m 22°C 22_4 0cm 100% 4mph 4mph 1013mB
18:00 4351m 22°C 22_2 0cm 100% 2mph 4mph 1013mB
21:00 4265m 12°C 12_2 0cm 42% 2mph 2mph 1015mB
0:00 4225m 12°C 12_2 0cm 22% 2mph 4mph 1015mB
3:00 4210m 12°C 12_2 0cm 55% 2mph 3mph 1014mB
6:00 4217m 11°C 11_1 0cm 28% 1mph 3mph 1015mB
9:00 4194m 15°C 15_5 0cm 0% 5mph 7mph 1014mB
12:00 4223m 21°C 21_4 0cm 23% 4mph 6mph 1014mB
15:00 4248m 32°C 32_10 0cm 5% 10mph 9mph 1012mB
18:00 4441m 32°C 32_12 0cm 20% 12mph 18mph 1013mB
21:00 4334m 19°C 19_3 0cm 73% 3mph 4mph 1014mB
0:00 4186m 18°C 18_4 0cm 37% 4mph 5mph 1014mB
3:00 4130m 17°C 17_3 0cm 0% 3mph 4mph 1015mB
6:00 4189m 17°C 17_3 0cm 0% 3mph 4mph 1015mB
9:00 4200m 20°C 20_6 0cm 0% 6mph 8mph 1015mB
12:00 4235m 32°C 32_9 0cm 0% 9mph 10mph 1014mB
15:00 4277m 32°C 32_11 0cm 0% 11mph 13mph 1014mB
18:00 4300m 32°C 32_8 0cm 0% 8mph 13mph 1014mB
21:00 4484m 21°C 21_3 0cm 0% 3mph 5mph 1016mB
0:00 4327m 19°C 19_1 0cm 0% 1mph 2mph 1016mB
3:00 4282m 17°C 17_2 0cm 0% 2mph 2mph 1017mB
6:00 4256m 16°C 16_3 0cm 25% 3mph 5mph 1018mB
9:00 4246m 19°C 19_4 0cm 100% 4mph 6mph 1018mB
12:00 4255m 25°C 25_5 0cm 96% 5mph 6mph 1018mB
15:00 4285m 29°C 29_6 0cm 1% 6mph 7mph 1016mB
18:00 4336m 29°C 29_6 0cm 4% 6mph 11mph 1017mB
21:00 4417m 20°C 20_4 0cm 3% 4mph 5mph 1019mB
0:00 4440m 20°C 20_8 0cm 39% 8mph 17mph 1019mB
Afternoon 1.5625mm 0.3125 4614m 28°C 28_7 0cm 62% 7mph 9mph 1018mB
Morning 1.76042mm 0.0625 4790m 19°C 19_3 0cm 37% 3mph 4mph 1017mB
Afternoon 1.76042mm 0 4675m 33°C 33_10 0cm 9% 10mph 13mph 1015mB
Morning 1.93229mm 0 4556m 19°C 19_7 0cm 70% 7mph 9mph 1015mB
Afternoon 1.95312mm 0 4664m 29°C 29_7 0cm 12% 7mph 6mph 1015mB
Morning 2.02083mm 0.125 4576m 19°C 19_3 0cm 0% 3mph 3mph 1016mB
Afternoon 2.05208mm 0.125 4196m 27°C 27_5 0cm 60% 5mph 4mph 1016mB
Morning 2.33854mm 0.0625 4328m 18°C 18_3 0cm 98% 3mph 5mph 1017mB
Afternoon 2.36979mm 0.25 4283m 24°C 24_5 0cm 97% 5mph 5mph 1015mB
Morning 2.63021mm 0.375 4320m 18°C 18_3 0cm 74% 3mph 4mph 1015mB
Afternoon 2.75mm 0.25 4220m 21°C 21_7 0cm 91% 7mph 11mph 1012mB
Morning 2.84896mm 0 4030m 16°C 16_5 0cm 46% 5mph 12mph 1012mB

16 day outlook at a glance

Forecast issued: 6/26/2019 7:52:23 AM

Chat

Your comments and questions. In a resort? Let us know what it's like!


Characters left 250

For terms and conditions see Readers Comments on the Cookie and privacy policy page.